Weather in Nisporeni

Moldova     47°04′46″N   28°11′13″E
temp.,
°C
wind,
m/s
gust,
m/s
humid.,
%
clouds,
%
prec.,
mm/h
press.,
hPa
HPBL,
m
17 may, mon
mon1700:00+13n1185100 0.0 100611
03:00+15nw0075100 0.0 100611
06:00+14wnw2277100 0.0 100444
09:00+15wnw347998 0.0 1005414
12:00+20wnw336490 0.4 1004840
15:00+21nw335997 3.1 10041243
18:00+20wnw22585 1.3 10031210
21:00+16sw12755 1.9 100311
18 may, tue
tue1800:00+14ese117790 0.4 100311
03:00+13se2283100 0.4 100223
06:00+12sse368899 0.0 1002145
09:00+16sw4578100 0.1 1002525
12:00+17wnw786695 0.1 10021106
15:00+16wnw687089 0.4 1002754
18:00+16wnw6106174 0.1 10021157
21:00+11wnw81594100 0.9 1003851
19 may, wed
wed1900:00+10wnw81695100 8.6 1004906
03:00+10wnw111994100 18.9 1005929
06:00+11nw91790100 4.0 1007936
09:00+11wnw71586100 7.9 10091073
12:00+16nw91265100 0.1 10091477
15:00+17nw7116134 0.6 10101590
18:00+18nw57585 0.0 10101319
21:00+13ne118155 0.0 101110
20 may, thu
thu2000:00+13ne117894 0.0 101011
03:00+13ene1177100 0.0 100910
06:00+13se2279100 0.0 100925
09:00+13sse3785100 0.3 1008481
12:00+16ssw457476 0.4 1008899
15:00+17w4469100 2.1 10081120
18:00+16nnw557116 0.5 1008922
21:00+11nw35925 0.6 101197
21 may, fri
fri2100:00+9nw339323 0.0 101254
03:00+8wnw22955 0.0 101313
06:00+8wnw2295100 0.0 101446
09:00+12nnw5886100 0.0 1015616
12:00+15nnw567088 0.6 10161159
15:00+16n6766100 1.7 10161329
18:00+16n6864100 0.5 10161271
21:00+12n4107699 0.5 1017221